Lid_Strength_Index
15 17 18 17 18 18 19 19 19 20 18 18 18 18 16 17 18 17 18 17 17 17 16 16 16 16 15 15 15 15 15 16 15 15 15 15 15 15 16 16 15 15 14 14
17 18 18 16 17 18 19 19 20 19 18 19 20 19 16 17 16 16 16 17 17 17 18 17 17 17 16 15 15 16 16 16 16 16 16 15 16 16 16 16 15 15 15 15
18 18 16 17 18 19 20 19 20 20 19 19 21 21 19 18 17 17 15 15 16 16 17 17 18 18 16 16 16 16 16 17 17 17 16 16 16 16 17 17 16 15 16 16
19 17 17 18 19 18 20 19 19 19 20 22 21 22 19 19 18 18 17 16 15 16 16 17 17 18 17 16 16 16 17 17 17 17 17 18 18 19 18 18 16 16 16 17
19 18 19 18 19 18 19 18 19 19 21 22 22 23 20 20 18 17 17 17 16 16 16 17 17 17 17 16 17 17 17 18 18 18 18 18 19 19 18 18 18 17 17 17
19 17 18 18 18 18 18 19 19 21 21 26 23 23 21 19 18 17 17 17 17 16 16 16 16 16 17 17 17 18 18 18 18 19 19 19 20 20 20 19 19 18 18 18
19 19 18 17 18 17 19 20 25 25 28 25 24 24 20 18 17 17 17 16 17 17 17 18 18 18 18 18 18 18 18 19 19 19 19 19 20 21 21 20 20 19 19 18
21 22 19 17 18 19 20 20 23 27 27 24 23 25 19 18 17 17 17 17 17 18 18 18 18 18 18 17 18 18 18 19 19 19 20 20 20 21 21 21 20 20 20 19
22 21 19 18 18 18 19 21 20 28 32 27 22 20 17 17 18 17 17 17 17 18 18 18 18 17 17 17 18 18 18 19 19 19 20 21 22 22 22 21 20 20 19 18
20 23 20 20 19 19 19 19 22 25 28 30 25 24 19 17 17 17 18 18 18 18 19 19 18 17 17 17 18 18 18 19 19 20 21 21 22 22 22 21 21 20 19 19
20 19 22 20 21 22 22 22 22 21 23 26 28 23 19 18 17 16 16 17 17 18 19 19 18 17 17 18 18 19 19 19 20 20 21 22 22 23 22 22 21 20 19 19
18 22 26 23 22 22 21 20 21 23 25 27 26 24 17 17 17 17 17 16 17 18 19 19 18 18 18 19 19 19 19 19 20 21 21 22 23 23 23 22 21 20 20 19
18 21 28 25 23 23 23 21 21 25 25 28 26 23 18 18 18 17 17 17 17 18 20 19 19 19 19 19 19 19 20 20 21 21 22 23 24 24 24 23 22 21 21 20
15 21 23 22 21 22 24 22 21 22 28 26 25 23 17 16 17 16 17 18 18 18 19 20 20 19 19 19 19 20 20 20 22 22 23 24 24 24 25 24 24 24 22 21
17 21 24 24 22 23 22 22 22 22 20 22 22 23 17 14 15 14 16 17 18 19 19 20 19 19 19 19 20 20 21 22 22 23 24 25 25 26 27 27 27 25 24 23
18 20 22 22 22 22 24 22 22 21 21 22 20 21 17 16 17 17 16 17 18 18 19 19 19 19 19 19 20 20 22 22 23 24 26 27 27 28 29 29 28 25 25 24
18 20 20 22 23 23 22 23 22 23 23 21 23 18 16 16 15 15 15 17 17 17 18 18 19 18 18 19 19 21 22 23 24 25 28 29 30 30 30 29 27 26 26 24
18 19 17 20 20 22 18 21 20 20 20 19 19 19 15 14 16 16 15 15 16 16 15 18 18 18 18 18 20 21 23 24 25 27 29 30 29 29 29 28 27 27 24 24
15 16 19 20 21 19 17 20 20 20 18 17 17 16 14 16 17 15 15 15 15 15 16 17 17 17 18 19 20 22 23 25 26 28 29 29 28 29 29 27 27 26 24 22
18 16 16 20 21 23 18 14 17 16 19 14 15 15 16 17 19 14 16 18 17 19 18 18 18 18 19 20 22 23 24 26 26 28 28 28 27 27 27 27 27 25 23 22
20 20 17 17 19 19 16 18 15 19 17 14 13 13 17 16 14 16 20 19 20 21 20 19 18 19 20 22 22 23 24 25 25 27 28 28 27 26 26 25 24 24 23 23
18 19 20 18 19 20 17 17 15 13 13 13 14 14 15 14 16 19 20 20 20 19 19 19 20 20 22 22 22 23 24 24 27 27 28 27 26 25 24 24 23 23 23 22
18 16 16 16 16 15 16 15 15 16 14 13 13 13 14 15 15 16 17 18 19 20 20 20 21 23 23 22 22 24 23 27 27 27 27 27 26 24 23 23 23 23 22 22
18 17 16 15 13 14 15 17 17 16 14 14 14 13 14 14 15 16 17 19 20 20 21 22 24 24 24 23 22 22 26 26 26 27 27 26 25 25 24 22 22 22 23 23
13 15 15 15 12 12 13 15 13 14 14 15 16 15 14 14 15 15 17 18 20 21 22 23 23 24 24 23 23 26 26 26 26 27 26 26 25 24 24 23 23 22 22 21
14 14 14 14 11 12 12 12 13 13 13 13 15 16 16 16 16 18 18 20 21 22 23 23 24 24 24 23 25 25 25 25 26 26 26 25 25 25 24 24 22 18 19 17